Wind_Speed
3 2 2 1 2 3 3 3 4 4 5 4 4 4 5 5 6 6 5 6 7 7 6 7 8 7 7 8 10 10 9 9 9 8 8 8 7 6 5 6 5 6 5
3 3 2 2 3 4 4 4 4 5 4 4 5 4 4 5 5 5 5 5 6 6 6 6 8 7 7 9 9 10 9 9 9 8 8 7 6 6 5 5 5 5 5
4 3 2 3 4 4 4 5 5 5 5 5 6 5 5 5 5 5 5 5 5 6 6 6 7 7 8 9 10 9 9 9 8 7 7 6 6 5 5 5 5 4 4
5 3 3 4 4 4 5 6 6 5 5 6 6 6 5 5 4 5 5 5 6 6 6 6 6 7 8 9 9 8 8 8 7 6 5 5 5 5 5 5 5 5 4
6 5 4 4 5 5 6 6 6 6 6 6 5 5 5 5 5 5 5 5 5 6 6 6 7 8 9 9 8 7 7 7 6 5 4 5 5 5 5 5 5 4 4
8 7 6 6 5 6 7 6 6 6 6 5 5 5 4 5 5 5 5 5 5 5 6 6 7 8 9 8 7 7 6 6 6 5 5 5 5 4 4 5 4 4 3
9 8 7 7 6 6 7 7 6 6 6 6 6 5 5 5 5 5 6 5 5 5 6 7 8 8 8 7 6 6 5 5 5 5 5 5 5 5 5 5 4 4 3
9 8 8 7 6 6 6 6 7 6 6 6 6 6 6 5 5 5 6 6 5 5 7 7 7 8 8 7 7 6 5 5 4 5 5 5 5 5 5 5 4 4 3
9 9 8 8 7 7 6 6 6 7 6 6 6 6 6 6 5 5 6 5 5 5 6 6 6 6 6 6 6 5 5 5 5 5 4 4 5 5 5 5 5 4 4
10 10 9 9 9 9 8 7 6 7 7 6 6 6 7 6 6 5 5 6 5 5 6 5 6 6 6 5 5 4 4 3 4 5 5 5 5 5 5 5 5 5 5
11 10 10 10 9 9 8 7 6 6 7 6 7 7 6 6 5 5 5 5 5 5 5 5 5 5 4 4 4 4 3 3 4 4 4 5 5 5 5 6 6 6 6
12 12 12 11 10 9 9 8 7 6 6 6 7 7 6 5 5 5 5 5 5 5 4 4 4 5 4 4 4 4 3 3 3 4 4 5 5 5 6 7 7 7 7
12 12 12 12 10 10 9 9 7 7 6 6 6 5 6 5 5 4 4 4 4 4 4 4 4 4 4 4 4 3 3 3 3 4 4 5 5 6 7 7 8 8 8
13 12 11 12 11 10 10 9 8 7 6 5 6 5 5 5 5 4 4 4 4 4 3 3 3 3 3 3 3 3 3 3 4 4 4 5 6 7 7 8 8 8 8
14 13 11 11 11 10 9 9 8 7 7 6 5 5 5 4 4 4 4 4 4 4 3 3 3 3 2 2 2 2 3 3 4 5 5 5 6 7 8 9 9 8 8
13 13 12 11 11 10 10 10 9 8 7 6 5 5 5 5 4 4 4 3 3 4 4 3 3 3 2 1 1 1 1 1 3 4 6 6 6 6 7 8 9 9 9
14 13 12 12 11 11 11 10 9 8 7 6 6 6 5 5 4 4 3 3 3 3 3 2 2 2 1 1 1 1 1 2 3 4 6 6 7 8 8 9 9 9 9
15 14 13 13 12 11 11 10 9 9 8 7 6 5 5 5 4 3 3 2 2 2 3 2 2 1 1 1 1 1 2 3 4 5 6 6 6 7 8 9 10 10 9
15 14 13 13 12 11 11 10 9 9 9 7 7 6 6 5 4 4 3 3 2 2 1 1 1 0 1 2 2 2 3 3 4 5 6 6 6 6 6 8 9 9 9
14 14 14 13 12 11 10 11 10 9 9 9 8 7 7 6 5 4 3 3 2 1 1 1 1 1 1 2 2 3 3 4 4 5 5 5 5 6 6 7 8 8 9
13 13 14 14 13 11 10 10 10 10 9 9 9 8 7 6 5 4 4 3 3 3 2 1 2 1 2 3 3 3 3 4 5 5 5 6 6 6 6 7 8 8 9
12 13 13 13 13 12 10 10 10 9 9 8 8 8 8 7 6 5 5 5 5 4 4 2 2 2 3 2 2 3 3 3 4 6 7 7 6 6 7 7 8 8 9
11 12 12 12 12 12 11 10 10 9 8 8 8 7 7 7 8 7 6 5 5 4 4 3 3 3 2 3 3 3 3 4 6 7 7 7 7 7 7 6 7 7 8
9 10 11 11 11 11 11 10 9 9 8 8 7 7 7 7 6 6 6 6 5 5 5 4 4 4 3 4 4 5 5 5 7 7 7 7 8 8 8 8 8 9 10
9 9 10 10 11 11 11 10 9 8 7 7 6 6 6 5 5 5 4 4 4 5 5 4 4 5 5 5 6 6 6 6 7 8 8 8 8 8 8 9 9 10 10
7 8 8 9 10 10 10 9 9 8 7 6 6 5 5 5 5 4 5 5 6 6 6 5 5 5 5 6 7 7 7 7 8 8 8 9 9 9 8 9 10 10 11
Wind_Direction
57 65 84 111 117 126 123 131 134 148 153 146 137 143 148 156 159 161 157 153 151 151 153 156 164 162 168 173 172 169 173 176 173 166 167 168 171 177 179 181 187 188 190
52 62 87 114 128 131 124 126 133 143 152 146 139 138 143 147 155 154 154 155 153 153 155 160 165 166 163 167 164 165 171 171 171 171 173 172 173 176 176 179 181 185 189
49 60 101 121 126 127 124 126 130 139 145 146 148 146 144 144 147 149 156 158 159 163 164 164 166 167 166 165 163 164 163 161 166 173 173 172 169 172 178 180 184 180 184
54 66 101 124 126 126 127 126 129 136 139 143 147 146 141 142 145 145 151 156 158 157 163 161 165 163 165 166 163 160 155 158 163 170 175 177 168 168 170 173 178 180 185
57 72 95 116 125 128 129 127 130 129 135 139 142 143 140 143 148 149 146 152 158 147 154 156 159 162 163 163 163 164 158 160 168 175 175 178 175 174 175 178 176 179 183
59 73 86 101 112 122 121 125 132 130 130 137 140 137 137 138 143 146 143 142 151 148 135 132 139 155 160 162 166 166 164 169 173 179 178 180 181 180 184 183 183 181 183
65 72 83 92 103 113 117 123 127 128 129 133 138 138 138 134 138 142 143 144 140 140 140 136 140 151 158 160 163 163 166 176 178 185 183 189 191 189 193 197 193 193 205
68 72 81 93 99 111 115 119 123 129 132 127 132 133 137 134 134 142 146 146 144 142 146 143 148 147 150 159 167 167 173 183 182 190 194 192 193 192 194 192 195 208 225
74 78 83 84 91 98 102 115 121 120 123 127 129 133 131 130 131 135 143 143 144 144 143 138 143 148 154 159 167 170 175 183 181 186 196 199 201 208 204 206 213 224 233
76 78 80 79 86 88 92 101 112 117 119 121 121 127 128 126 127 128 139 145 143 147 146 143 152 149 153 164 167 169 176 187 192 203 209 209 214 218 212 218 229 239 242
76 81 80 81 83 84 88 87 94 113 118 116 115 123 128 126 125 126 131 148 152 152 151 152 154 155 161 167 166 162 175 194 203 214 222 226 220 219 220 227 237 241 246
71 76 78 79 83 84 81 84 88 106 116 115 116 118 121 126 127 128 128 143 158 154 151 155 158 169 175 178 174 168 181 200 203 224 233 231 229 232 230 236 244 247 247
70 75 73 70 76 80 79 79 80 94 114 116 116 120 118 119 122 125 128 139 149 155 166 172 172 175 185 183 182 176 185 213 219 236 240 241 242 242 238 239 244 245 244
68 72 73 72 71 75 76 80 78 85 97 114 111 113 119 119 117 120 125 124 142 153 164 180 172 173 181 184 183 185 205 226 228 235 245 250 245 245 245 242 241 243 246
64 65 69 64 63 68 71 71 72 83 87 97 106 111 116 115 114 119 118 120 130 150 153 158 162 177 180 193 195 213 228 238 236 235 251 262 258 250 248 249 244 246 252
59 61 60 57 59 66 67 68 72 82 84 84 93 108 110 105 104 118 127 112 120 138 142 141 151 161 171 183 212 233 255 269 265 253 259 260 263 255 254 253 250 251 253
56 59 59 54 57 64 63 63 63 74 82 85 89 94 101 101 101 114 122 123 122 126 131 137 167 178 201 260 267 261 272 296 299 296 277 266 270 261 259 258 257 256 257
53 55 58 57 56 64 66 64 60 62 73 81 80 84 87 91 96 109 123 135 127 117 120 145 169 170 237 292 293 286 316 325 320 304 297 288 280 269 260 259 258 259 260
51 52 53 55 56 62 62 63 64 63 67 69 74 80 80 86 89 95 106 119 120 125 130 135 94 222 295 307 315 323 327 330 333 317 306 298 289 283 268 257 253 257 258
47 48 50 51 53 60 59 58 60 63 65 67 73 75 71 67 73 88 90 98 98 115 155 126 79 31 340 344 337 328 326 326 324 316 310 304 291 285 276 258 252 254 255
44 45 47 50 51 56 59 59 59 61 63 68 69 70 69 68 70 74 71 63 57 70 81 58 26 325 322 317 321 324 317 313 316 317 314 312 307 296 284 275 269 264 261
41 42 44 47 49 50 57 57 60 62 65 66 68 67 63 64 64 65 67 68 58 62 70 63 37 26 348 323 334 323 319 323 331 326 323 324 316 305 294 284 277 272 269
38 36 41 46 47 46 50 53 54 54 57 60 67 67 62 64 67 67 68 66 53 56 56 48 37 16 5 352 347 331 318 326 331 328 325 327 317 308 300 289 282 277 272
32 36 41 43 45 45 45 49 54 55 56 57 61 61 60 61 60 59 57 52 52 45 38 32 21 8 1 352 343 340 334 336 332 328 322 317 308 304 301 293 287 285 285
30 32 33 38 39 39 40 42 45 51 51 48 48 50 48 46 46 49 47 43 37 26 20 24 16 8 0 349 341 336 329 325 324 323 321 317 312 305 299 289 286 288 291
27 25 27 31 31 32 33 37 39 42 42 40 36 34 32 32 33 29 31 36 26 17 13 13 9 3 355 347 340 334 329 328 327 325 321 317 317 310 303 294 291 291 294
Height
5868 5869 5869 5869 5870 5870 5870 5870 5870 5871 5872 5872 5872 5873 5873 5873 5874 5875 5875 5876 5876 5877 5877 5877 5878 5878 5878 5878 5879 5880 5882 5883 5884 5886 5886 5887 5888 5889 5889 5889 5890 5890 5891
5869 5869 5869 5869 5870 5870 5870 5871 5871 5871 5872 5872 5873 5873 5874 5874 5874 5875 5876 5876 5877 5877 5877 5877 5878 5878 5878 5879 5879 5881 5882 5884 5885 5886 5887 5887 5888 5889 5889 5890 5890 5890 5891
5869 5869 5869 5869 5870 5870 5871 5871 5871 5871 5872 5873 5873 5874 5874 5874 5875 5875 5876 5876 5877 5877 5877 5877 5878 5878 5879 5880 5881 5882 5883 5884 5885 5886 5887 5888 5888 5889 5889 5890 5890 5890 5891
5870 5869 5869 5869 5870 5870 5871 5872 5872 5872 5872 5873 5873 5874 5875 5875 5876 5876 5876 5876 5877 5877 5877 5877 5877 5878 5879 5881 5882 5883 5883 5884 5886 5886 5887 5888 5888 5889 5889 5890 5890 5891 5891
5870 5869 5869 5870 5870 5871 5871 5872 5873 5873 5873 5873 5874 5874 5875 5876 5876 5876 5877 5877 5877 5877 5876 5876 5876 5877 5879 5881 5882 5883 5884 5885 5886 5887 5887 5888 5888 5889 5889 5890 5890 5891 5891
5871 5870 5870 5871 5871 5871 5872 5872 5873 5873 5874 5874 5875 5875 5875 5876 5876 5877 5877 5878 5878 5878 5877 5876 5874 5876 5878 5881 5882 5883 5884 5885 5886 5887 5888 5888 5888 5889 5889 5890 5890 5890 5890
5873 5872 5872 5872 5872 5872 5873 5873 5873 5874 5874 5875 5875 5875 5876 5877 5877 5877 5878 5878 5878 5878 5878 5877 5876 5877 5879 5881 5883 5884 5885 5886 5887 5887 5888 5888 5889 5889 5889 5889 5890 5890 5890
5875 5874 5873 5873 5873 5873 5873 5874 5874 5874 5875 5875 5876 5875 5876 5877 5878 5878 5878 5879 5879 5879 5879 5879 5879 5880 5881 5882 5884 5885 5886 5886 5887 5887 5888 5888 5888 5888 5889 5889 5889 5889 5890
5876 5876 5875 5875 5875 5874 5874 5874 5874 5875 5876 5876 5876 5876 5877 5877 5878 5878 5879 5879 5879 5880 5880 5880 5881 5881 5882 5883 5884 5885 5886 5886 5887 5887 5887 5888 5888 5888 5888 5889 5889 5889 5889
5878 5877 5877 5876 5876 5876 5875 5875 5875 5876 5876 5876 5877 5877 5877 5878 5878 5879 5879 5880 5880 5880 5881 5882 5882 5883 5883 5884 5885 5885 5886 5886 5886 5887 5887 5887 5887 5887 5888 5888 5888 5888 5888
5879 5879 5878 5877 5877 5877 5877 5877 5876 5876 5876 5877 5877 5878 5878 5879 5879 5879 5880 5880 5881 5881 5882 5882 5883 5883 5884 5884 5885 5885 5886 5886 5886 5886 5886 5886 5886 5886 5886 5887 5887 5887 5887
5881 5881 5880 5879 5879 5878 5878 5877 5877 5877 5877 5878 5878 5878 5879 5879 5880 5880 5880 5880 5881 5881 5882 5883 5883 5883 5884 5884 5885 5885 5886 5886 5886 5885 5885 5885 5885 5885 5886 5886 5886 5886 5886
5884 5883 5882 5881 5880 5879 5878 5878 5878 5877 5878 5879 5879 5879 5880 5880 5880 5881 5881 5881 5881 5882 5882 5883 5883 5883 5884 5884 5885 5885 5885 5885 5885 5885 5884 5884 5884 5884 5884 5884 5884 5884 5884
5886 5885 5884 5883 5882 5881 5880 5879 5879 5879 5879 5879 5880 5880 5880 5881 5881 5881 5881 5881 5881 5882 5882 5883 5883 5883 5883 5884 5884 5885 5885 5884 5884 5884 5884 5883 5883 5883 5883 5883 5883 5883 5883
5888 5887 5886 5885 5884 5883 5882 5881 5881 5880 5880 5880 5881 5881 5881 5882 5882 5882 5882 5882 5882 5882 5883 5883 5883 5883 5883 5884 5884 5884 5884 5883 5883 5883 5883 5882 5882 5881 5881 5881 5881 5881 5881
5890 5889 5888 5887 5886 5884 5883 5883 5882 5881 5881 5881 5881 5882 5882 5882 5882 5882 5882 5882 5883 5883 5883 5883 5883 5884 5884 5884 5884 5883 5883 5883 5882 5882 5881 5881 5880 5879 5879 5879 5879 5879 5879
5892 5891 5890 5888 5887 5886 5885 5884 5883 5883 5882 5882 5882 5883 5883 5883 5883 5883 5884 5884 5883 5883 5883 5883 5883 5883 5884 5884 5883 5883 5883 5882 5881 5881 5880 5879 5879 5878 5877 5877 5878 5878 5877
5894 5893 5891 5890 5889 5888 5887 5886 5885 5884 5883 5883 5883 5883 5883 5884 5884 5884 5884 5884 5883 5883 5884 5884 5884 5883 5883 5883 5883 5882 5882 5881 5881 5880 5879 5878 5877 5876 5876 5876 5876 5876 5875
5896 5895 5893 5892 5890 5889 5888 5887 5886 5885 5885 5884 5884 5884 5884 5885 5885 5885 5884 5884 5884 5884 5884 5884 5883 5883 5883 5883 5882 5882 5882 5881 5880 5879 5878 5876 5875 5875 5874 5873 5873 5873 5873
5898 5897 5895 5893 5892 5891 5890 5889 5888 5887 5886 5886 5886 5885 5885 5885 5885 5885 5885 5884 5884 5884 5883 5883 5883 5883 5883 5883 5882 5881 5881 5880 5879 5878 5877 5875 5874 5873 5872 5871 5871 5871 5871
5900 5899 5897 5895 5894 5893 5892 5891 5890 5889 5888 5888 5887 5887 5886 5886 5886 5885 5885 5884 5884 5884 5884 5883 5883 5883 5882 5882 5881 5881 5880 5879 5878 5877 5876 5874 5873 5872 5870 5870 5869 5869 5868
5902 5901 5899 5897 5896 5894 5893 5892 5891 5890 5890 5890 5889 5888 5887 5887 5886 5886 5886 5885 5884 5884 5884 5884 5883 5883 5882 5881 5881 5880 5880 5879 5877 5876 5874 5873 5871 5870 5869 5868 5867 5866 5866
5904 5902 5901 5899 5898 5896 5895 5894 5893 5892 5891 5891 5890 5889 5889 5888 5887 5887 5886 5886 5885 5885 5884 5884 5883 5883 5882 5881 5880 5880 5879 5878 5876 5874 5873 5871 5870 5869 5867 5866 5865 5864 5864
5905 5903 5902 5901 5899 5898 5897 5895 5895 5894 5893 5892 5891 5890 5889 5888 5888 5887 5887 5886 5885 5885 5884 5884 5883 5882 5881 5880 5879 5878 5878 5876 5875 5873 5872 5870 5869 5867 5866 5864 5863 5862 5861
5905 5904 5903 5902 5901 5899 5898 5897 5896 5895 5894 5893 5892 5891 5890 5889 5889 5888 5887 5886 5886 5885 5884 5883 5883 5882 5881 5880 5878 5877 5876 5875 5873 5872 5870 5869 5867 5865 5864 5862 5861 5860 5859
5907 5905 5904 5903 5902 5900 5899 5898 5897 5895 5895 5893 5892 5891 5891 5890 5889 5888 5887 5886 5886 5885 5884 5883 5882 5881 5880 5878 5877 5876 5875 5873 5872 5870 5868 5867 5865 5863 5861 5860 5858 5857 5856